Regional Weather Roundup
Issued by NWS

Home | Current Version | Previous Version | Graphics & Text | Print | Product List | Glossary On
Versions: 1 2 3 4 5 6 7 8 9 10 11 12 13 14 15 16 17 18 19 20 21 22 23 24 25 26 27 28 29 30 31 32 33 34 35 36 37 38 39 40 41 42 43 44 45 46 47 48 49 50
000
ASUS43 KBIS 240410
RWRND

NORTH DAKOTA REGIONAL WEATHER ROUNDUP
NATIONAL WEATHER SERVICE BISMARCK ND
1100 PM CDT THU MAR 23 2017

NOTE: "FAIR" INDICATES FEW OR NO CLOUDS BELOW 12,000 FEET WITH NO
SIGNIFICANT WEATHER AND/OR OBSTRUCTIONS TO VISIBILITY.


NDZ001>003-009>011-017-240500-
NORTHWEST NORTH DAKOTA

CITY           SKY/WX    TMP DP  RH WIND       PRES   REMARKS
WILLISTON      FAIR      39  34  82 N7        29.93R
MINOT          FAIR      32  30  92 NW6       29.92R
MINOT AFB      CLEAR     29  28  93 NW3       29.92R
$$

NDZ018>021-031>035-040>046-240500-
SOUTHWEST NORTH DAKOTA

CITY           SKY/WX    TMP DP  RH WIND       PRES   REMARKS
BISMARCK       FAIR      38  35  89 NW5       29.91R
DICKINSON      FAIR      40  37  89 SW9       29.90R
GARRISON         N/A     32  29  88 N6        29.92R
HETTINGER ARPT PTCLDY    36  35  96 NW6       29.94R
$$

NDZ004>008-012>016-024-026-027-054-240500-
NORTHEAST NORTH DAKOTA

CITY           SKY/WX    TMP DP  RH WIND       PRES   REMARKS
GRAND FORKS    LGT RAIN  35  34  96 CALM      29.89R
GRND FRKS AFB  CLOUDY    33  33  99 NW3       29.89R
DEVILS LAKE    FAIR      32  30  92 NW9       29.92R
$$

NDZ022-023-025-028>030-036>039-047>053-240500-
SOUTHEAST NORTH DAKOTA

CITY           SKY/WX    TMP DP  RH WIND       PRES   REMARKS
FARGO          CLOUDY    35  34  96 N3        29.88R FOG
JAMESTOWN      LGT RAIN  34  33  96 N7        29.86R FOG
$$





USA.gov is the U.S. government's official web portal to all federal, state and local government web resources and services.